JO-97
1 43803U 18099AX  24331.12256205  .00024208  00000-0  13507-2 0  9995
2 43803  97.4988  26.6117 0009725 104.3263 255.9048 15.13507649327130
Suomi 100
1 43804U 18099AY  24331.41727235  .00020960  00000-0  12152-2 0  9990
2 43804  97.5062  26.5973 0015418 104.0448 256.2497 15.12098860327144
ISAT
1 43879U 18111D   24331.67325577  .00028235  00000-0  13593-2 0  9991
2 43879  97.6064 237.2737 0012048 145.8735 214.3275 15.18660516321980
UWE-4
1 43880U 18111E   24331.60690684  .00024726  00000-0  12590-2 0  9997
2 43880  97.5996 236.7303 0014763 159.4631 200.7198 15.16697007321986
Sparrow
1 43881U 18111F   24330.72468782  .00029299  00000-0  13847-2 0  9998
2 43881  97.6170 238.5753 0007542 184.7367 175.3797 15.19333908323934
Prox-1
1 44339U 19036A   24330.24887858  .00022827  00000-0  34381-2 0  9996
2 44339  23.9980 264.8435 0007447   1.9139 358.1384 14.72930121288968
SONATE
1 44400U 19038Q   24330.99882702  .00062557  00000-0  11778-2 0  9991
2 44400  97.7133 333.8285 0009297 239.6407 120.3924 15.48277567298983
Taurus 1
1 44530U 19059C   24331.79731598  .00016295  00000-0  33577-2 0  9992
2 44530  98.5884  96.9688 0010567 272.7220  87.2770 14.60519499275459
Duchifat 3
1 44854U 19089C   24331.80603370  .00040245  00000-0  14687-2 0  9995
2 44854  36.9500 134.8171 0011192  19.2979 340.8193 15.27168148272974
TO-108
1 44881U 19093C   24331.45189433  .00003023  00000-0  36235-3 0  9997
2 44881  97.8153  45.0783 0014780 147.2696 212.9438 14.84729931267116
FloripaSat 1
1 44885U 19093G   24331.78335329  .00014106  00000-0  13145-2 0  9992
2 44885  97.8317  53.4483 0012413 133.4208 226.8047 14.94305523267612
RS-44
1 44909U 19096E   24330.47760964  .00000035  00000-0  93186-4 0  9995
2 44909  82.5227 357.5992 0218070  34.3819 327.1175 12.79736248229604
UPMSat 2
1 46276U 20061E   24330.64617425  .00044586  00000-0  93715-3 0  9996
2 46276  97.2766  35.9124 0000133 195.9978 164.1266 15.45198295235008
AmicalSat
1 46287U 20061R   24331.18624807  .00244441  00000-0  20450-2 0  9997
2 46287  97.3209  40.9789 0002151 297.8756  62.2288 15.69248307234630
SALSAT
1 46495U 20068K   24330.88336932  .00015927  00000-0  79159-3 0  9996
2 46495  97.8378 294.9100 0014803 113.7552 246.5235 15.17645498228792
IDEASSat
1 47458U 21006AX  24330.61911240  .00607545  14612-3  19922-2 0  9992
2 47458  97.2973  34.0827 0004244 299.8722  60.2129 15.90542965213703
CubeSX-Sirius-HSE
1 47951U 21022V   24331.52239910  .00062481  00000-0  15246-2 0  9998
2 47951  97.4406 230.7162 0007089 292.3587  67.6908 15.40625197203426
CubeSX-HSE
1 47952U 21022W   24331.52085288  .00065460  00000-0  15770-2 0  9998
2 47952  97.4404 230.8540 0006992 289.5256  70.5235 15.41000494203434
KSU-Cubesat
1 47954U 21022Y   24331.20966721  .00115823  00000-0  21049-2 0  9990
2 47954  97.4404 233.0397 0004051 282.8247  77.2551 15.49117219203269
GRBAlpha
1 47959U 21022AD  24331.80351424  .00063159  00000-0  15211-2 0  9997
2 47959  97.4405 231.3100 0006852 288.4768  71.5734 15.41021141202303
Orbicraft-Zorkiy
1 47960U 21022AE  24331.79811966  .00078309  00000-0  15812-2 0  9999
2 47960  97.4448 233.4415 0004958 286.3137  73.7567 15.46213653203109
TUBIN
1 48900U 21059X   24331.79840553  .00041751  00000-0  10088-2 0  9999
2 48900  97.6609 122.5277 0005350 230.3223 129.7551 15.41037302189862
LEDSAT
1 49069U 21073D   24330.70215703  .00052906  00000-0  14708-2 0  9992
2 49069  97.4185  41.7271 0015598  70.9771 289.3161 15.36558373181146
CUTE
1 49263U 21088D   24330.61564256  .00056371  00000-0  17777-2 0  9993
2 49263  97.4775  36.6170 0010521 230.1552 129.8765 15.32626336174248
TeikyoSat 4
1 49396U 21102B   24330.66377210  .00005678  00000-0  39233-3 0  9990
2 49396  97.4400  10.0406 0014368  85.4588 274.8280 15.06037099167047
Z-Sat
1 49399U 21102E   24331.52217902  .00009585  00000-0  56815-3 0  9996
2 49399  97.4112  12.9372 0020659  61.6519 298.6791 15.11400029167485
KOSEN 1
1 49402U 21102H   24331.11239187  .00014841  00000-0  77847-3 0  9994
2 49402  97.4025  14.6829 0018470  45.0338 315.2388 15.15701284167638
HO-113
1 50466U 21131B   24331.44936608  .00001914  00000-0  61817-3 0  9993
2 50466  98.5220  55.7642 0004187  16.5185 343.6139 14.40285855153352
IRIS-A
1 51044U 22002BN  24331.44020810  .00068362  00000-0  13841-2 0  9996
2 51044  97.3635  38.5939 0004660 166.8600 193.2771 15.46178037159354
Planetum 1
1 52738U 22057G   24330.87214650  .01880230  29944-2  20454-2 0  9995
2 52738  97.5610 107.2828 0009942 294.8172  65.2076 16.10528235139754
Foresail-1
1 52766U 22057AL  24331.79321989  .00059914  00000-0  12014-2 0  9991
2 52766  97.5963 102.7771 0007717 270.7250  89.3114 15.46477206139446
SNUGLITE 2
1 52899U 22065F   24330.84771298  .00004117  00000-0  82813-3 0  9994
2 52899  98.1409 109.2210 0007710  15.2415 344.9017 14.62095972127872
IO-117
1 53106U 22080B   24331.77042742 -.00000003  00000-0  00000+0 0  9996
2 53106  70.1300 136.0386 0008362  70.8561 289.3004  6.42557781 55710
FO-118
1 54684U 22167C   24331.50171233  .00112813  00000-0  17855-2 0  9994
2 54684  97.6145 122.5391 0008881 285.1723  74.8547 15.52998771109264
SSS-2B
1 56184U 23054G   24331.50993353  .00360883  00000-0  18437-2 0  9991
2 56184  97.3386 233.7521 0004309  88.2250 271.9511 15.80379640 91342
SO-120
1 56992U 23084BU  24330.56903847  .00157319  00000-0  23785-2 0  9995
2 56992  97.5370  94.1480 0006545 189.3716 170.7416 15.54126643 80983
MRC-100
1 56993U 23084BV  24331.14645450  .00294514  00000-0  27562-2 0  9990
2 56993  97.5339  96.3227 0004698 215.8886 144.2059 15.66312936 81189
UmKA 1 (RS40S)
1 57172U 23091G   24331.50552278  .00012452  00000-0  74019-3 0  9992
2 57172  97.5904  22.0981 0014460 288.2451  71.7205 15.11330675 77979
CubeBel-2 (EU11S)
1 57175U 23091K   24331.52169149  .00017007  00000-0  95467-3 0  9999
2 57175  97.5906  22.3721 0012652 300.2967  59.7011 15.13342420 77993
VERONIKA
1 58261U 23174F   24331.67966819  .00054475  00000-0  16052-2 0  9995
2 58261  97.4433  46.1312 0009277  30.6212 329.5571 15.34803503 58502
KAFASAT
1 58317U 23174BP  24330.88522616  .00107099  00000-0  23472-2 0  9997
2 58317  97.4361  47.0577 0007426 359.1345   0.9889 15.43663273 58518
ENSO
1 58470U 23185J   24331.35874816  .00048930  00000-0  14559-2 0  9998
2 58470  97.4058  37.2865 0010685  66.7423 293.4944 15.34510519 54905
EIRSAT-1
1 58472U 23185L   24331.53406271  .00055712  00000-0  15462-2 0  9996
2 58472  97.4053  37.7799 0009914  65.5854 294.6423 15.36670483 54950
SONATE-2
1 59112U 24043Q   24330.93568232  .00028043  00000-0  10908-2 0  9998
2 59112  97.4940  93.9419 0013734  88.2187 272.0624 15.25902496 40404
MO-122
1 60209U 24125G   24330.12765517  .00030189  00000-0  11675-2 0  9990
2 60209  97.3004 179.0505 0024571 115.4223 244.9563 15.25879134 21894
GRBBeta
1 60237U 24128C   24330.63710734  .00008531  00000-0  70180-3 0  9994
2 60237  61.9951  41.1772 0028362   7.0383 353.1098 14.99466422 20788
Curium One
1 60242U 24128H   24330.53781250  .00014440  00000-0  11616-2 0  9994
2 60242  61.9855  41.6404 0028721 357.7217   2.3737 14.99911684 20771
ROBUSTA-3A
1 60243U 24128J   24330.49252013  .00014606  00000-0  11851-2 0  9995
2 60243  61.9922  42.0815 0026645 355.2762   4.8072 14.99617276 20767
CatSat
1 60246U 24125J   24331.54118437  .00021205  00000-0  84693-3 0  9991
2 60246  97.2805 181.2731 0050290  66.7916 293.8607 15.23966308 20218
CosmoGirlSat
1 60953U 98067WT  24331.09823443  .00686392  19906-3  20995-2 0  9998
2 60953  51.6206 223.3605 0010643 197.7618 162.3017 15.91240700 13899
Sakura
1 60954U 98067WU  24331.73493809  .02223257  53765-2  20174-2 0  9997
2 60954  51.6124 217.8107 0010323 214.7181 145.3161 16.13092160 14021
CySat-1
1 61501U 98067WZ  24331.11410921  .00275207  00000-0  24110-2 0  9998
2 61501  51.6326 230.2836 0011786 200.4376 159.6150 15.67385559  7634
DORA
1 61502U 98067XA  24331.09594166  .02742408  87280-2  41984-2 0  9999
2 61502  51.6098 227.1044 0015604 202.9359 157.0958 16.05584379  7663
AO-123
1 99130U 24099A   24330.49763889  .00064149  00000-0  26989-2 0 00005
2 99130 097.3813 194.9746 0017579 164.3269 001.1317 15.23282521000010
